[[{"header":{"parameterUnit":"m.s-1","parameterCategory":1,"la1":30.2992,"la2":30.254,"lo1":-89.0895,"lo2":-89.0443,"dy":0.0025,"dx":0.0025,"nx":19,"ny":19,"refTime":"2026-05-18T09:00:00:Z","depth":0,"parameterNumber":2,"parameterNumberName":"U-component_of_WINDS"},"data":[0,0,0,-4.5432,-4.5435,-4.5577,-4.5578,-4.5763,-4.5765,0,0,0,0,0,0,0,0,0,0,0,-4.5393,-4.5394,-4.5432,-4.5435,-4.5577,-4.5578,-4.5763,-4.5765,0,0,0,0,0,0,0,0,0,0,0,-4.5392,-4.5394,-4.5395,-4.5436,-4.5577,-4.5578,-4.5762,-4.5654,0,0,0,0,0,0,0,0,0,0,-4.5515,-4.5482,-4.5393,-4.5396,-4.5437,-4.5577,-4.5578,-4.5648,-4.566,-4.57,0,-4.5737,0,-4.5754,-4.5777,-4.5778,0,0,0,-4.5433,-4.5472,-4.5508,-4.5396,-4.5438,-4.5577,-4.5513,-4.5655,-4.5669,-4.5716,-4.574,-4.5747,-4.5757,-4.5779,-4.578,-4.602,-4.6021,0,0,-4.5425,-4.542,-4.5498,-4.5517,-4.5496,-4.5508,-4.5517,-4.5663,-4.5688,-4.5741,-4.5751,-4.576,-4.578,-4.5781,-4.6019,-4.602,0,0,0,-4.5404,-4.5414,-4.5446,-4.5509,-4.5535,-4.5512,-4.5523,-4.5682,-4.5693,-4.5753,-4.5762,-4.5781,-4.5783,-4.6017,-4.6019,-4.6074,0,0,0,-4.5399,-4.5402,-4.5443,-4.5441,-4.5532,-4.561,-4.5538,-4.5683,-4.5699,-4.5761,-4.5781,-4.5785,-4.6016,-4.6018,-4.607,-4.61,0,0,0,-4.5382,-4.54,-4.5422,-4.5441,-4.5502,-4.5608,-4.5627,-4.5686,-4.5705,-4.5778,-4.5786,-4.6015,-4.6018,-4.6066,-4.6094,-4.6161,0,0,0,-4.5363,-4.5469,-4.5423,-4.5545,-4.5501,-4.5642,-4.5626,-4.5732,-4.5801,-4.5782,-4.6016,-4.6019,-4.6065,-4.609,-4.6157,-4.6216,-4.624,0,0,-4.5493,-4.5484,-4.5557,-4.552,-4.5667,-4.562,-4.5776,-4.5845,-4.5856,-4.5964,-4.597,-4.6071,-4.6094,-4.616,-4.6382,-4.6401,0,0,0,-4.5596,-4.5648,-4.5688,-4.5754,-4.581,-4.5859,-4.5905,-4.593,-4.6022,-4.5911,-4.6115,-4.6128,-4.6168,-4.6196,-4.6212,-4.6246,-4.6032,-4.6032,-4.6032,-4.5772,-4.5782,-4.5902,-4.5929,-4.5994,-4.604,-4.6092,-4.6134,-4.6125,-4.6173,-4.6205,-4.6338,-4.6371,-4.6383,-4.6418,-4.6238,-4.6238,-4.6239,-4.6239,-4.5963,-4.6037,-4.6024,-4.6135,-4.6145,-4.6238,-4.6287,-4.6278,-4.6365,-4.6315,-4.635,-4.6292,-4.6404,-4.6435,-4.6243,-4.6242,-4.6242,-4.6241,-4.6241,-4.6078,-4.6115,-4.6145,-4.6242,-4.6315,-4.6339,-4.6424,-4.643,-4.6437,-4.6472,-4.6505,-4.6504,-4.6502,-4.6487,-4.6488,-4.6488,-4.6489,-4.6489,-4.6489,-4.6185,-4.6217,-4.6288,-4.6356,-4.6399,-4.6457,-4.6505,-4.6547,-4.6595,-4.6593,-4.6593,-4.6579,-4.6414,-4.6371,-4.6497,-4.6495,-4.6494,-4.6494,-4.6493,-4.6372,-4.6331,-4.644,-4.6484,-4.6564,-4.6636,-4.6643,-4.6729,-4.6765,-4.6807,-4.6786,-4.6664,-4.6654,-4.6641,-4.6606,-4.6784,-4.6784,-4.6784,-4.6784,-4.6467,-4.6464,-4.6577,-4.6646,-4.6714,-4.6732,-4.6855,-4.6894,-4.6927,-4.6949,-4.6925,-4.6879,-4.6866,-4.6864,-4.6847,-4.6813,-4.7041,-4.7041,-4.7041,-4.6582,-4.6586,-4.6689,-4.6722,-4.6785,-4.6839,-4.6955,-4.7033,-4.7063,-4.7052,-4.6967,-4.6956,-4.6883,-4.6859,-4.6843,-4.6816,-4.6755,0,0]},{"header":{"parameterUnit":"m.s-1","parameterCategory":1,"la1":30.2992,"la2":30.254,"lo1":-89.0895,"lo2":-89.0443,"dy":0.0025,"dx":0.0025,"nx":19,"ny":19,"refTime":"2026-05-18T09:00:00:Z","depth":0,"parameterNumber":3,"parameterNumberName":"V-component_of_WINDS"},"data":[0,0,0,2.9409,2.941,2.9477,2.9477,2.9559,2.9559,0,0,0,0,0,0,0,0,0,0,0,2.9388,2.9388,2.9409,2.941,2.9477,2.9477,2.9559,2.9559,0,0,0,0,0,0,0,0,0,0,0,2.9388,2.9388,2.9389,2.9411,2.9477,2.9478,2.9558,2.9509,0,0,0,0,0,0,0,0,0,0,2.9445,2.9424,2.9388,2.9389,2.9411,2.9477,2.9478,2.9507,2.9512,2.9527,0,2.9541,0,2.9552,2.9565,2.9565,0,0,0,2.9411,2.942,2.9439,2.9389,2.9412,2.9477,2.9447,2.951,2.9516,2.9534,2.9542,2.9545,2.9553,2.9565,2.9566,2.9654,2.9654,0,0,2.9407,2.9399,2.9435,2.9443,2.9434,2.9445,2.9449,2.9514,2.9521,2.9543,2.9547,2.9554,2.9566,2.9566,2.9653,2.9654,0,0,0,2.9396,2.9396,2.9414,2.944,2.9452,2.9447,2.9452,2.9518,2.9525,2.9548,2.9555,2.9566,2.9567,2.9653,2.9654,2.9665,0,0,0,2.9394,2.939,2.9412,2.9408,2.9451,2.9486,2.9455,2.9521,2.9528,2.9555,2.9566,2.9568,2.9653,2.9653,2.9664,2.9671,0,0,0,2.9384,2.9388,2.9398,2.9407,2.9436,2.9486,2.9496,2.9522,2.9533,2.9565,2.9568,2.9652,2.9653,2.9663,2.967,2.9692,0,0,0,2.937,2.9406,2.9398,2.9441,2.9435,2.9493,2.9496,2.9539,2.9568,2.9567,2.9653,2.9654,2.9662,2.9668,2.9691,2.971,2.9717,0,0,2.941,2.941,2.9436,2.9431,2.9488,2.9483,2.9542,2.9576,2.9586,2.963,2.9633,2.9664,2.9669,2.9692,2.9761,2.9766,0,0,0,2.9446,2.9464,2.9482,2.951,2.9539,2.9564,2.959,2.9603,2.9642,2.9608,2.9679,2.9682,2.9696,2.9705,2.971,2.9722,2.9658,2.9658,2.9657,2.9489,2.9502,2.9547,2.9568,2.9596,2.9624,2.9648,2.967,2.9673,2.969,2.9703,2.9743,2.9753,2.9757,2.977,2.9714,2.9714,2.9714,2.9714,2.9549,2.9577,2.9584,2.9629,2.9643,2.968,2.9709,2.9711,2.9747,2.9734,2.9746,2.9731,2.9763,2.9775,2.9715,2.9715,2.9715,2.9715,2.9715,2.9578,2.9594,2.9611,2.9655,2.9688,2.9708,2.9744,2.9754,2.9764,2.9777,2.9792,2.9791,2.9792,2.9783,2.9783,2.9784,2.9784,2.9784,2.9784,2.9602,2.9621,2.965,2.9685,2.9706,2.9734,2.9764,2.9784,2.9809,2.9814,2.9814,2.9816,2.9764,2.9751,2.9786,2.9786,2.9785,2.9785,2.9785,2.9657,2.9647,2.9692,2.9713,2.9756,2.9787,2.9801,2.9842,2.986,2.9877,2.9877,2.9838,2.9837,2.9834,2.9823,2.9875,2.9875,2.9875,2.9875,2.9681,2.9683,2.9733,2.9766,2.9799,2.9817,2.9868,2.9892,2.9915,2.9927,2.9921,2.9907,2.9903,2.9906,2.9901,2.989,2.9958,2.9958,2.9958,2.9716,2.9722,2.9763,2.9787,2.9822,2.9851,2.9899,2.9936,2.9959,2.9962,2.9936,2.9933,2.9911,2.9903,2.9904,2.9895,2.9877,0,0]}]]